{"data":{"norad_id":69203,"epoch":"2026-09-19T21:12:55.090080Z","epoch_age_seconds":80192,"freshness":"FRESH","line1":"1 69203U 26114X   26262.88397095  .00020921  00000+0  62881-3 0  9992","line2":"2 69203  53.1577 116.4452 0002614  90.3107 269.8195 15.34388583 19352","mean_motion":15.34388583,"eccentricity":0.0002614,"inclination_deg":53.1577,"raan_deg":116.4452,"arg_perigee_deg":90.3107,"mean_anomaly_deg":269.8195,"bstar":0.00062881,"rev_number":1935,"period_min":93.848456378928,"perigee_km":460.94896963842,"apogee_km":464.52537865666,"semimajor_km":6840.8741741475,"source":"CELESTRAK","updated_at":"2026-09-20T09:00:44.099877Z"}}